Location: Gerlach
(40.6516°N, 119.3568°W)
Time: 14:51:03
(UTC-07:00)

A-11 Canister half - Pass Details

Date: 22 February 2024
Orbit: 1525 x 1683 km, 47.3° (Epoch: 21 April)

Event Time Altitude Azimuth Distance (km) Brightness Sun altitude
Exits shadow 04:03:34 61° 233° (SW) 1,711 8.8 -30.7°
Maximum altitude 04:04:06 62° 218° (SW) 1,701 8.9 -30.6°
Drops below altitude 10° 04:13:20 10° 141° (SE) 3,745 11.3 -28.9°
Sets 04:16:28 0° 138° (SE) 4,746 12.0 -28.3°
